Regional Weather Roundup
Issued by NWS Cleveland, OH

Home | Current Version | Previous Version | Graphics & Text | Print | Product List | Glossary On
Versions: 1 2 3 4 5 6 7 8 9 10 11 12 13 14 15 16 17 18 19 20 21 22 23 24 25 26 27 28 29 30 31 32 33 34 35 36 37 38 39 40 41 42 43 44 45 46 47 48 49 50
000
ASUS41 KCLE 140312
RWRCLE
OHIO REGIONAL WEATHER ROUNDUP
NATIONAL WEATHER SERVICE WILMINGTON, OH
1000 PM EST WED DEC 13 2017

NOTE: "FAIR" INDICATES FEW OR NO CLOUDS BELOW 12,000 FEET WITH NO
SIGNIFICANT WEATHER AND/OR OBSTRUCTIONS TO VISIBILITY.

OHZ001>008-015>018-024>027-034-035-043-044-140400-
   NORTHWEST OHIO

CITY           SKY/WX    TMP DP  RH WIND       PRES   REMARKS
DEFIANCE       LGT SNOW  32  29  88 W10G20    29.37R FOG     WCI  24
FINDLAY        LGT SNOW  34  30  85 W23G30    29.34R FOG     WCI  22
TOLEDO EXPRESS LGT SNOW  25  25 100 N7        29.34R FOG     WCI  17
TOLEDO EXEC    LGT SNOW  27  24  89 CALM      29.34S FOG
LIMA           LGT SNOW  33  32  96 W23G37    29.38R FOG     WCI  21
$$

OHZ009>014-019>023-028>033-038-089-140400-
   NORTHEAST OHIO

CITY           SKY/WX    TMP DP  RH WIND       PRES   REMARKS
CLE-HOPKINS    LGT SNOW  23  20  88 S13       29.39F FOG     WCI  11
CLE-LAKEFRONT  LGT SNOW  23  19  85 SE9       29.39S FOG     WCI  13
CUY CO. ARPT   LGT SNOW  23  19  86 SE12      29.39F WCI  12
LORAIN-ELYRIA  LGT SNOW  23  17  78 S13       29.36F WCI  11
ASHTABULA      LGT SNOW  21  18  88 SE6       29.45F FOG     WCI  13
AKRON-CANTON   LGT SNOW  22  18  85 S12       29.38F VSB 1   WCI  10
WOOSTER        LGT SNOW  23  21  92 S10       29.37F FOG     WCI  12
MANSFIELD      LGT SNOW  27  24  89 S16       29.33F FOG     WCI  15
YOUNGSTOWN     LGT SNOW  21  17  84 SE9       29.41F FOG     WCI  11
$$

OHZ042-051>053-060>062-070>072-077>081-140400-
  SOUTHWEST OHIO

CITY           SKY/WX    TMP DP  RH WIND       PRES   REMARKS
CINC-COVINGTON CLOUDY    42  33  70 W28G41    29.52R
CINC-LUNKEN    CLOUDY    44  32  62 W30G45    29.52R
HAMILTON       CLOUDY    42  33  70 W22G31    29.51R
DAYTON         CLOUDY    37  32  82 W29G39    29.44R
WRIGHT-PAT AFB CLOUDY    38  33  80 W29G38    29.43R
DAYTON GENERAL CLOUDY    40  32  73 W21G35    29.46R
WILMINGTON     CLOUDY    40  32  73 W29G48    29.44R
$$

OHZ036-037-039>041-045>050-054>059-063>069-073>076-082>088-140400-
  CENTRAL AND SOUTHEAST OHIO

CITY           SKY/WX    TMP DP  RH WIND       PRES   REMARKS
COLUMBUS       FLURRIES  35  20  54 S8        29.39F WCI  29
OSU AIRPORT    CLOUDY    35  24  64 SW14      29.38F WCI  26
BOLTON FIELD   CLOUDY    36  22  57 SW10G18   29.40R
RICKENBACK AFB CLOUDY    33  19  57 CALM      29.40S
NEWARK         CLOUDY    30  19  63 S6        29.39F WCI  24
MARION         LGT SNOW  29  26  89 S9        29.36S FOG     WCI  20
LANCASTER      CLOUDY    34  19  54 S8        29.40F WCI  27
ZANESVILLE     FLURRIES  30  17  58 S8        29.41F WCI  22
NEW PHILLY     LGT SNOW  23  20  88 SE7       29.42F FOG     WCI  15
$$



USA.gov is the U.S. government's official web portal to all federal, state and local government web resources and services.